Home > Weather > Kingston > Past weeks

Flag for Canada Past Weather in Kingston, Ontario, Canada — Yesterday and Last 2 Weeks

Now
68 °F

Mostly cloudy.


Feels Like: 68 °F
Forecast: 63 / 77 °F
Wind: 3 mph from Southwest

Location: Kingston

Current Time: May 30, 2016 at 1:07:57 AM

Latest Report: May 29, 2016 at 11:00 PM


Visibility: 15 mi

Pressure: 29.94 "Hg

Humidity: 78%

Dew Point: 61 °F

Location of KingstonLocation

Past Weather in Kingston — Graph

°F

Kingston Temperature Yesterday

Maximum temperature yesterday: 79 °F (at 5:00 PM)
Minimum temperature yesterday: 66 °F (at 7:00 AM)
Average temperature yesterday: 71 °F

High & Low Weather Summary for the Past Weeks

 TemperatureHumidityPressure
High81 °F (May 25, 3:00 PM)100% (May 20, 6:00 AM)30.29 "Hg (May 20, 6:00 AM)
Low36 °F (May 17, 6:00 AM)32% (May 24, 4:00 PM)29.68 "Hg (May 14, 11:00 PM)
Average60 °F67%30.02 "Hg
* Reported May 14 11:00 PM — May 29 11:00 PM, Kingston, Weather by CustomWeather, © 2016

Note: Actual official high and low records may vary slightly from our data, if they occured in-between our weather recording intervals... More about our weather records

Advertising

Kingston Weather History for the Previous 24 Hours

Scroll right to see more
 ConditionsComfort  
Time TempWeatherWind HumidityBarometerVisibility
11:00 PM
Sun, May 29
68 °FMostly cloudy.3 mph78%29.94 "Hg15 mi
10:00 PM70 °FLight rain. Passing clouds.2 mph73%29.95 "Hg15 mi
9:00 PM70 °FScattered showers. More clouds than sun.2 mph78%29.95 "Hg15 mi
8:00 PM70 °FMostly cloudy.5 mph83%29.95 "Hg12 mi
7:00 PM68 °FMore clouds than sun.13 mph83%29.95 "Hg10 mi
6:00 PM72 °FBroken clouds.16 mph73%29.96 "Hg10 mi
5:00 PM79 °FBroken clouds.7 mph61%29.96 "Hg10 mi
4:00 PM75 °FBroken clouds.13 mph74%29.97 "Hg12 mi
3:00 PM72 °FBroken clouds.14 mph78%30.01 "Hg10 mi
2:00 PM72 °FBroken clouds.10 mph78%30.01 "Hg12 mi
1:00 PM72 °FBroken clouds.9 mph78%30.03 "Hg12 mi
12:00 PM72 °FBroken clouds.7 mph83%30.04 "Hg12 mi
11:00 AM70 °FPartly sunny.6 mph83%30.05 "Hg12 mi
10:00 AM70 °FPartly sunny.8 mph88%30.07 "Hg12 mi
9:00 AM72 °FBroken clouds.7 mph83%30.07 "Hg15 mi
8:00 AM68 °FBroken clouds.6 mph88%30.06 "Hg12 mi
7:00 AM66 °FMostly cloudy.2 mph94%30.06 "Hg12 mi
6:00 AM68 °FSprinkles. Overcast.7 mph83%30.05 "Hg12 mi
Weather by CustomWeather, © 2016

See weather overviewHow to use our weather pages